Location: Debolt
(55.2626°N, 118.0981°W)
Time: 10:40:35
(UTC+00:00)

Oscar 11 - Pass Details

Date: 22 May 2025
Orbit: 595 x 604 km, 97.8° (Epoch: 19 June)

Event Time Altitude Azimuth Distance (km) Brightness Sun altitude
Rises 09:56:20 0° 31° (NNE) 2,858 12.9 -9.6°
Reaches altitude 10° 10:00:48 10° 75° (ENE) 1,949 10.3 -9.2°
Maximum altitude 10:01:20 10° 83° (E) 1,935 10.2 -9.2°
Drops below altitude 10° 10:01:52 10° 90° (E) 1,948 10.1 -9.2°
Sets 10:06:17 0° 134° (SE) 2,845 10.3 -8.8°
